Weather History for KBKV - July, 2013

Change the Weather History Date:

Tuesday, July 23, 2013

  Actual Average (KTPA) Record (KTPA)
Temperature  
Mean Temperature 76 °F 83 °F  
Max Temperature 82 °F 90 °F 95 °F (1959)
Min Temperature 71 °F 76 °F 68 °F (1921)
Degree Days  
Heating Degree Days 0 0  
Month to date heating degree days 0  
Since 1 June heating degree days 0  
Since 1 July heating degree days 0  
Cooling Degree Days 10 18  
Month to date cooling degree days 414  
Year to date cooling degree days 1807  
Since 1 June cooling degree days 930  
Growing Degree Days 26 (Base 50)    
Moisture  
Dew Point 73 °F    
Average Humidity 92    
Maximum Humidity 100    
Minimum Humidity 79    
Precipitation  
Precipitation 1.78 in 0.21 in 2.52 in (1899)
Month to date precipitation 5.28  
Year to date precipitation 24.16  
Sea Level Pressure  
Sea Level Pressure 30.08 in    
Wind  
Wind Speed 4 mph (SSW)    
Max Wind Speed 16 mph    
Max Gust Speed 25 mph    
Visibility 7 miles    
Events Fog , Rain , Thunderstorm    
T = Trace of Precipitation, MM = Missing Value Source: NWS Daily Summary

Daily Weather History Graph

Daily Weather History Graph

Search for Another Location

Airport or City:

Trip Planner

Search our weather history database for the weather conditions in past years. The results will help you decide how hot, cold, wet, or windy it might be!

Date:

Astronomy

Jul. 23, 2013 Rise Set
Actual Time 6:46 AM EDT 8:25 PM EDT
Civil Twilight 6:20 AM EDT 8:51 PM EDT
Nautical Twilight 5:49 AM EDT 9:22 PM EDT
Astronomical Twilight 5:16 AM EDT 9:55 PM EDT
Moon 9:06 PM EDT (7/23) 7:43 AM EDT (7/23)
Length of Visible Light 14h 30m
Length of Day
13h 38m
Full, 99% of the Moon is Illuminated
Jul 23
Full
Jul 29
Last Quarter
Aug 6
New
Aug 14
First Quarter
Aug 20
Full

Hourly Weather History & Observations

Time (EDT) Temp. Heat Index Dew Point Humidity Pressure Visibility Wind Dir Wind Speed Gust Speed Precip Events Conditions
12:53 AM 77.0 °F - 75.0 °F 94% 30.09 in 10.0 mi Calm Calm - N/A   Clear
1:53 AM 75.0 °F - 73.9 °F 96% 30.09 in 10.0 mi Calm Calm - N/A   Clear
2:53 AM 75.0 °F - 73.9 °F 96% 30.07 in 10.0 mi South 3.5 mph - N/A   Clear
3:53 AM 75.9 °F - 73.9 °F 94% 30.06 in 10.0 mi Calm Calm - N/A   Clear
4:53 AM 75.0 °F - 73.9 °F 96% 30.05 in 10.0 mi SSE 4.6 mph - N/A   Clear
5:53 AM 75.0 °F - 73.0 °F 94% 30.04 in 10.0 mi South 3.5 mph - N/A   Clear
6:53 AM 73.9 °F - 73.0 °F 97% 30.08 in 10.0 mi Calm Calm - N/A   Clear
7:53 AM 78.1 °F - 75.0 °F 90% 30.08 in 10.0 mi South 4.6 mph - N/A   Clear
8:53 AM 80.1 °F 85.4 °F 75.9 °F 87% 30.09 in 10.0 mi Variable 5.8 mph - N/A   Overcast
9:34 AM 80.6 °F 86.2 °F 75.2 °F 84% 30.10 in 1.5 mi NNW 15.0 mph 18.4 mph 0.13 in Rain Rain
9:43 AM 77.0 °F - 73.4 °F 89% 30.11 in 0.5 mi Variable 5.8 mph - 0.51 in Fog , Rain Heavy Rain
9:50 AM 77.0 °F - 73.4 °F 89% 30.11 in 3.0 mi South 6.9 mph - 0.51 in Rain Light Rain
9:53 AM 77.0 °F - 73.9 °F 90% 30.11 in 10.0 mi Variable 3.5 mph - 0.51 in Rain Light Rain
10:04 AM 75.2 °F - 71.6 °F 89% 30.12 in 10.0 mi South 8.1 mph - N/A   Overcast
10:53 AM 75.0 °F - 72.0 °F 90% 30.10 in 10.0 mi South 8.1 mph - N/A   Scattered Clouds
11:53 AM 79.0 °F - 73.0 °F 82% 30.09 in 10.0 mi SSW 5.8 mph - N/A   Clear
12:13 PM 78.8 °F - 73.4 °F 83% 30.10 in 10.0 mi South 6.9 mph - N/A Thunderstorm Mostly Cloudy
12:36 PM 80.6 °F 85.4 °F 73.4 °F 79% 30.11 in 10.0 mi North 4.6 mph - N/A   Overcast
12:44 PM 75.2 °F - 71.6 °F 89% 30.13 in 2.5 mi North 16.1 mph 21.9 mph 0.16 in Rain Light Rain
12:46 PM 75.2 °F - 71.6 °F 89% 30.13 in 1.2 mi North 16.1 mph 25.3 mph 0.21 in Rain Heavy Rain
12:53 PM 73.0 °F - 72.0 °F 96% 30.12 in 0.2 mi North 12.7 mph 25.3 mph 0.61 in Fog , Rain Heavy Rain
1:04 PM 71.6 °F - 71.6 °F 100% 30.12 in 1.0 mi NE 6.9 mph - 0.20 in Rain Heavy Rain
1:09 PM 71.6 °F - 71.6 °F 100% 30.12 in 2.0 mi NNE 4.6 mph - 0.22 in Rain Rain
1:25 PM 71.6 °F - 71.6 °F 100% 30.11 in 2.0 mi South 3.5 mph - 0.33 in Rain Rain
1:36 PM 73.4 °F - 71.6 °F 94% 30.11 in 7.0 mi South 3.5 mph - 0.34 in Rain Light Rain
1:53 PM 73.0 °F - 71.1 °F 93% 30.11 in 10.0 mi WSW 3.5 mph - 0.34 in Rain Light Rain
2:25 PM 73.4 °F - 71.6 °F 94% 30.09 in 2.5 mi WSW 4.6 mph - 0.06 in Rain Rain
2:33 PM 73.4 °F - 71.6 °F 94% 30.08 in 4.0 mi WSW 3.5 mph - 0.08 in Rain Rain
2:53 PM 75.0 °F - 73.0 °F 94% 30.07 in 5.0 mi Calm Calm - 0.11 in Rain Light Rain
3:53 PM 75.9 °F - 73.0 °F 91% 30.06 in 10.0 mi West 4.6 mph - 0.04 in Rain Light Rain
4:53 PM 75.0 °F - 73.0 °F 94% 30.06 in 4.0 mi SW 4.6 mph - 0.06 in Rain Light Rain
5:53 PM 75.9 °F - 73.9 °F 94% 30.03 in 10.0 mi SSE 4.6 mph - 0.11 in Rain Light Rain
6:53 PM 77.0 °F - 75.0 °F 94% 30.00 in 10.0 mi South 3.5 mph - 0.00 in   Clear
7:53 PM 78.1 °F - 75.9 °F 93% 29.99 in 10.0 mi Calm Calm - N/A   Clear
8:53 PM 77.0 °F - 75.0 °F 94% 29.99 in 10.0 mi Calm Calm - N/A   Clear
9:53 PM 77.0 °F - 75.9 °F 96% 30.00 in 10.0 mi SSW 4.6 mph - N/A   Partly Cloudy
10:53 PM 77.0 °F - 75.9 °F 96% 30.02 in 10.0 mi Calm Calm - N/A   Scattered Clouds
11:53 PM 77.0 °F - 75.0 °F 94% 30.01 in 10.0 mi Calm Calm - N/A   Clear